This is the latest recevied weather packets stored in our database for station/object IK1QAD-3. If no packets are shown the sender has not sent any weather packets the latest 10 day(s).
| Time | Temp. | Humidity | Pressure | Rain* | Wind** | Luminosity | Snow |
|---|---|---|---|---|---|---|---|
| 1777743508 | 17.78° C | 59% | 1020.6 hPa | 0 mm | - | - | - |
| 1777743221 | 17.78° C | 60% | 1020.7 hPa | 0 mm | - | - | - |
| 1777742916 | 17.78° C | 61% | 1020.8 hPa | 0 mm | - | - | - |
| 1777742608 | 17.78° C | 59% | 1020.8 hPa | 0 mm | - | - | - |
| 1777742306 | 18.33° C | 58% | 1020.8 hPa | 0 mm | - | - | - |
| 1777742004 | 18.89° C | 56% | 1020.8 hPa | 0 mm | - | - | - |
| 1777741723 | 18.89° C | 57% | 1020.8 hPa | 0 mm | - | - | - |
| 1777741421 | 19.44° C | 54% | 1020.8 hPa | 0 mm | - | - | - |
| 1777741115 | 20° C | 53% | 1020.8 hPa | 0 mm | - | - | - |
| 1777740811 | 20° C | 52% | 1020.8 hPa | 0 mm | - | - | - |
| 1777740508 | 20° C | 52% | 1020.9 hPa | 0 mm | - | - | - |
| 1777740223 | 20° C | 51% | 1021 hPa | 0 mm | - | - | - |
| 1777739921 | 20° C | 50% | 1021.1 hPa | 0 mm | - | - | - |
| 1777739616 | 20° C | 49% | 1021.1 hPa | 0 mm | - | - | - |
| 1777739312 | 20° C | 47% | 1021.1 hPa | 0 mm | - | - | - |
| 1777739008 | 20° C | 46% | 1021.2 hPa | 0 mm | - | - | - |
| 1777738724 | 20° C | 47% | 1021.3 hPa | 0 mm | - | - | - |
| 1777738420 | 20.56° C | 46% | 1021.3 hPa | 0 mm | - | - | - |
| 1777738115 | 20.56° C | 47% | 1021.3 hPa | 0 mm | - | - | - |
| 1777737812 | 20.56° C | 49% | 1021.4 hPa | 0 mm | - | - | - |
| 1777737508 | 20.56° C | 48% | 1021.4 hPa | 0 mm | - | - | - |
| 1777737222 | 20.56° C | 49% | 1021.4 hPa | 0 mm | - | - | - |
| 1777736919 | 20° C | 51% | 1021.5 hPa | 0 mm | - | - | - |
| 1777736615 | 20° C | 50% | 1021.6 hPa | 0 mm | - | - | - |
| 1777736315 | 20.56° C | 51% | 1021.6 hPa | 0 mm | - | - | - |
* Rain latest hour (hover to see other rain measurements)
** Current wind speed in m/s (hover to see current wind gust speed)